{"data":{"norad_id":64738,"intl_designator":"2025-144Q","name":"STARLINK-34597","alt_names":[],"object_type":"PAYLOAD","status":"ACTIVE","operator":null,"country":"US","launch_date":"2025-07-02","launch_site_code":"AFETR","launch_vehicle":null,"mission":null,"orbit_class":"UNKNOWN","rcs_meters":null,"size_class":null,"mass_kg":null,"dimensions":null,"purposes":["comms"],"wikipedia_slug":null,"has_3d_model":false,"image_url":null,"decayed_at":null,"tle_current":{"epoch":"2026-05-25T02:12:23.958144Z","epoch_age_seconds":64204,"freshness":"FRESH","line1":"1 64738U 25144Q   26145.09194396  .00011165  00000+0  38822-3 0  9992","line2":"2 64738  53.1580 185.8596 0001427  53.9791 306.1342 15.30225661 51390","mean_motion":15.30225661,"eccentricity":0.0001427,"inclination_deg":53.158,"raan_deg":185.8596,"arg_perigee_deg":53.9791,"mean_anomaly_deg":306.1342,"bstar":0.00038822,"rev_number":5139,"period_min":94.103767614181,"perigee_km":474.16048896256,"apogee_km":476.11641377638,"semimajor_km":6853.2754513695,"source":"CELESTRAK","updated_at":"2026-05-25T13:38:20.547258Z"}}}